Notices

What's New in latest Release from April 7th, 2021:

- Updated Glossary, including Speed of Maximum Gust, and Total Hourly Precipitation

- Updated national and regional climate services offices contacts and prices information

- Addition of station inventory lists for 1981-2010, 1971-2000, and 1961-1990 Normals.

If you haven't already, please take our survey and provide feedback about our website: https://eccc.sondage-survey.ca/f/LanguageSelection.aspx?s=442ca660-fcf1-47c0-95a9-59707d6fd709

Hourly Data Report for July 21, 2019

TORONTO CITY
ONTARIO
Current Station Operator: ECCC - MSC

43°40'00.000" N
79°24'00.000" W
112.50 m
6158355
71508
XTO

Download Data

Hourly Data (July 2019)
Hourly Data Report for July 21, 2019
TIME
LST
Temp Definition
°C
Dew Point Definition
°C
Rel Hum Definition
%
Precip. Amount Definition
mm

Wind Dir Definition
10's deg

Wind Spd Definition
km/h
Visibility Definition
km
Stn Press Definition
kPa
Hmdx Definition


Wind Chill Definition


Weather Definition


00:00 22.1 19.9 87 0.0       99.53 30   LegendNANA
01:00 22.9 20.3 86 0.0       99.60 31   LegendNANA
02:00 23.2 19.5 80 0.0       99.57 30   LegendNANA
03:00 23.2 18.8 76 0.0       99.54 30   LegendNANA
04:00 22.9 18.7 77 0.0       99.56 29   LegendNANA
05:00 22.6 18.6 78 0.0       99.64 29   LegendNANA
06:00 22.8 18.8 78 0.0       99.68 29   LegendNANA
07:00 23.7 18.9 74 0.0       99.72 30   LegendNANA
08:00 24.5 14.6 54 0.0       99.81 28   LegendNANA
09:00 24.8 11.5 43 0.0       99.75 27   LegendNANA
10:00 25.8 9.5 36 0.0       99.75 27   LegendNANA
11:00 25.8 9.4 35 0.0       99.86 27   LegendNANA
12:00 27.9 10.9 35 0.0       99.84 30   LegendNANA
13:00 28.4 10.7 33 0.0       99.84 30   LegendNANA
14:00 28.9 9.9 31 0.0       99.82 30   LegendNANA
15:00 29.4 10.9 32 0.0       99.82 31   LegendNANA
16:00 28.0 12.3 38 0.0       99.85 30   LegendNANA
17:00 28.0 11.2 35 0.0       99.80 30   LegendNANA
18:00 27.7 9.8 33 0.0       99.85 29   LegendNANA
19:00 27.1 10.3 35 0.0       99.90 29   LegendNANA
20:00 25.5 9.2 36 0.0       99.91 26   LegendNANA
21:00 24.6 9.1 37 0.0       99.95 25   LegendNANA
22:00 23.7 8.9 39 0.0       99.95     LegendNANA
23:00 22.6 10.1 45 0.0       99.89     LegendNANA

Notes on Data Quality.

Legend

  • E = Estimated
  • M = Missing
  • NA = Not Available*
  • [empty] = Indicates an unobserved value
Date modified: